Regional Weather Roundup
Issued by NWS

Home | Current Version | Previous Version | Graphics & Text | Print | Product List | Glossary On
Versions: 1 2 3 4 5 6 7 8 9 10 11 12 13 14 15 16 17 18 19 20 21 22 23 24 25 26 27 28 29 30 31 32 33 34 35 36 37 38 39 40 41 42 43 44 45 46 47 48 49 50
971
ASUS44 KLIX 231210
RWRLA
LOUISIANA WEATHER ROUNDUP
NATIONAL WEATHER SERVICE NEW ORLEANS LA
700 AM CDT THU OCT 23 2014

NOTE: "FAIR" INDICATES FEW OR NO CLOUDS BELOW 12,000 FEET WITH NO
      SIGNIFICANT WEATHER AND/OR OBSTRUCTIONS TO VISIBILITY.
      SKY/WX - SKY CONDITION AND SIGNIFICANT WEATHER.
      TMP - AIR TEMPERATURE.    DP   - DEWPOINT TEMPERATURE.
      RH  - RELATIVE HUMIDITY.  PRES - PRESSURE.
      HX  - HEAT INDEX.         WCI  - WIND CHILL INDEX.

*  THESE STATIONS ARE NOT NWS OR FAA STATIONS AND ARE NOT UNDER
   NWS QUALITY CONTROL.

LAZ040-048-061>063-065-066-069-231300-
SOUTHEAST LOUISIANA

CITY           SKY/WX    TMP DP  RH WIND       PRES   REMARKS
N.O. AUDUBON     N/A     59 N/A N/A MISG        N/A
6HR MIN TEMP:  58; 6HR MAX TEMP:  67;

N.O. INTL ARPT CLEAR     62  50  64 NE7       30.07R
6HR MIN TEMP:  62; 6HR MAX TEMP:  68;

N.O. LAKEFRONT LGT RAIN  62  50  64 NE16      30.08R
6HR MIN TEMP:  62; 6HR MAX TEMP:  68; 6HR PCP: TRACE;

N.O. DOWNTOWN* FAIR      61  46  59 NE6       30.08R
6HR MIN TEMP:  61; 6HR MAX TEMP:  66;

SLIDELL        CLEAR     46  43  89 CALM      30.09R
6HR MIN TEMP:  46; 6HR MAX TEMP:  56;

BATON ROUGE    CLEAR     50  46  86 CALM      30.10R
6HR MIN TEMP:  50; 6HR MAX TEMP:  57;

BOOTHVILLE     CLEAR     69  58  67 NE7       30.05R
6HR MIN TEMP:  69; 6HR MAX TEMP:  72;

BELLE CHASSE   CLEAR     56  49  77 NE6       30.06S
6HR MIN TEMP:  56; 6HR MAX TEMP:  62;

BOGALUSA*        N/A     44  40  88 CALM      30.13R
6HR MIN TEMP:  44; 6HR MAX TEMP:  51;

NEW ROADS*     FAIR      51  46  84 N3        30.11R
6HR MIN TEMP:  51; 6HR MAX TEMP:  57;

GONZALES*      FAIR      52  50  92 N3        30.08S
6HR MIN TEMP:  52; 6HR MAX TEMP:  60;

HAMMOND*       CLEAR     50  45  81 CALM      30.11S
HOUMA*         CLEAR     54  48  82 N5        30.07R
PORT FOURCHON* SUNNY     68  59  73 NE10      30.08R

$$

LAZ041-044-053-054-231300-
SOUTHWEST LOUISIANA

CITY           SKY/WX    TMP DP  RH WIND       PRES   REMARKS
LAKE CHARLES   PTCLDY    54  50  86 NE7       30.08S
6HR MIN TEMP:  54; 6HR MAX TEMP:  62;

LAFAYETTE      CLEAR     51  49  92 NE5       30.09R
6HR MIN TEMP:  51; 6HR MAX TEMP:  58;

PATTERSON      CLEAR     54  50  87 NE5       30.10R
6HR MIN TEMP:  54; 6HR MAX TEMP:  57;

SALT POINT       N/A     57  54  89 VRB3      30.07R
6HR MIN TEMP:  57; 6HR MAX TEMP:  63; 6HR PCP:  0.01;

NEW IBERIA     CLEAR     55  49  80 NE7       30.10R
6HR MIN TEMP:  55; 6HR MAX TEMP:  61;

CHENAULT AIRPK NOT AVBL

$$

LAZ027-028-231300-
CENTRAL LOUISIANA

CITY           SKY/WX    TMP DP  RH WIND       PRES   REMARKS
FORT POLK      CLOUDY    54  49  83 NE2       30.11R
6HR MIN TEMP:  53; 6HR MAX TEMP:  60;

ALEXANDRIA INT PTCLDY    49  47  93 CALM      30.11S
6HR MIN TEMP:  48; 6HR MAX TEMP:  56;

ALEXANDRIA     PTCLDY    46  45  96 CALM      30.12S
6HR MIN TEMP:  45; 6HR MAX TEMP:  55;


$$

LAZ001-002-231300-
NORTHWEST LOUISIANA

CITY           SKY/WX    TMP DP  RH WIND       PRES   REMARKS
SHREVEPORT     CLOUDY    56  49  77 NE5       30.13S
6HR MIN TEMP:  56; 6HR MAX TEMP:  60;

BARKSDALE AFB  CLOUDY    54  48  79 NE3       30.14S
6HR MIN TEMP:  54; 6HR MAX TEMP:  59;

DTN SHREVEPORT CLOUDY    55  49  80 N5        30.14R
6HR MIN TEMP:  54; 6HR MAX TEMP:  58;


$$

LAZ014-016-231300-
NORTHEAST LOUISIANA

CITY           SKY/WX    TMP DP  RH WIND       PRES   REMARKS
MONROE         CLOUDY    48  45  89 NE6       30.15S
6HR MIN TEMP:  47; 6HR MAX TEMP:  52;

TALLULAH       PTCLDY    46  44  93 CALM      30.15R
6HR MIN TEMP:  41; 6HR MAX TEMP:  49;


$$




USA.gov is the U.S. government's official web portal to all federal, state and local government web resources and services.